Time,TemperatureF,DewpointF,PressureIn,WindDirection,WindDirectionDegrees,WindSpeedMPH,WindSpeedGustMPH,Humidity,HourlyPrecipIn,Conditions,Clouds,dailyrainin,SoftwareType,DateUTC
2013-01-11 00:01:00,33.1,18.3,30.44,SW,225,6.9,11.4,54,0.00,,,0.00,WUHU216EASYWX,2013-01-11 05:01:00,
2013-01-11 00:02:00,33.1,18.3,30.44,SW,225,6.9,11.4,54,0.00,,,0.00,WUHU216EASYWX,2013-01-11 05:02:00,
2013-01-11 00:03:00,33.1,18.3,30.44,SW,225,6.9,11.4,54,0.00,,,0.00,WUHU216EASYWX,2013-01-11 05:03:00,
2013-01-11 00:08:00,33.3,18.0,30.43,North,0,6.9,11.4,53,0.00,,,0.00,WUHU216EASYWX,2013-01-11 05:08:00,
2013-01-11 00:13:00,32.9,17.6,30.43,NE,45,6.0,9.9,53,0.00,,,0.00,WUHU216EASYWX,2013-01-11 05:13:00,
2013-01-11 00:18:00,33.1,17.8,30.43,NE,45,5.4,9.9,53,0.00,,,0.00,WUHU216EASYWX,2013-01-11 05:18:00,
2013-01-11 00:23:00,32.7,18.0,30.43,North,0,7.6,9.9,54,0.00,,,0.00,WUHU216EASYWX,2013-01-11 05:23:00,
2013-01-11 00:28:00,32.7,17.4,30.43,East,90,5.4,9.9,53,0.00,,,0.00,WUHU216EASYWX,2013-01-11 05:28:00,
2013-01-11 00:33:00,32.4,17.6,30.42,North,0,3.1,9.2,54,0.00,,,0.00,WUHU216EASYWX,2013-01-11 05:33:00,
2013-01-11 00:38:00,32.4,17.6,30.42,NE,45,5.4,8.3,54,0.00,,,0.00,WUHU216EASYWX,2013-01-11 05:38:00,
2013-01-11 00:43:00,32.4,17.6,30.42,North,0,4.5,8.3,54,0.00,,,0.00,WUHU216EASYWX,2013-01-11 05:43:00,
2013-01-11 00:48:00,32.4,17.6,30.42,NE,45,3.8,7.6,54,0.00,,,0.00,WUHU216EASYWX,2013-01-11 05:48:00,
2013-01-11 00:53:00,32.4,17.6,30.43,North,0,3.1,6.0,54,0.00,,,0.00,WUHU216EASYWX,2013-01-11 05:53:00,
2013-01-11 00:58:00,32.2,17.4,30.43,NNE,23,6.9,8.3,54,0.00,,,0.00,WUHU216EASYWX,2013-01-11 05:58:00,
2013-01-11 01:03:00,31.8,17.4,30.43,ENE,68,4.5,8.3,55,0.00,,,0.00,WUHU216EASYWX,2013-01-11 06:03:00,
2013-01-11 01:08:00,31.5,17.6,30.43,NE,45,4.5,6.9,56,0.00,,,0.00,WUHU216EASYWX,2013-01-11 06:08:00,
2013-01-11 01:13:00,31.3,17.4,30.42,NE,45,3.8,6.0,56,0.00,,,0.00,WUHU216EASYWX,2013-01-11 06:13:00,
2013-01-11 01:18:00,31.3,17.4,30.43,North,0,3.8,6.0,56,0.00,,,0.00,WUHU216EASYWX,2013-01-11 06:18:00,
2013-01-11 01:23:00,30.6,17.1,30.43,North,0,2.2,5.4,57,0.00,,,0.00,WUHU216EASYWX,2013-01-11 06:23:00,
2013-01-11 01:28:00,30.7,17.2,30.43,NE,45,3.1,6.0,57,0.00,,,0.00,WUHU216EASYWX,2013-01-11 06:28:00,
2013-01-11 01:33:00,30.7,17.2,30.43,NE,45,4.5,8.3,57,0.00,,,0.00,WUHU216EASYWX,2013-01-11 06:33:00,
2013-01-11 01:38:00,30.7,17.8,30.44,NE,45,5.4,8.3,58,0.00,,,0.00,WUHU216EASYWX,2013-01-11 06:38:00,
2013-01-11 01:43:00,30.9,17.4,30.43,North,0,3.1,7.6,57,0.00,,,0.00,WUHU216EASYWX,2013-01-11 06:43:00,
2013-01-11 01:48:00,30.6,17.6,30.44,North,0,1.6,4.5,58,0.00,,,0.00,WUHU216EASYWX,2013-01-11 06:48:00,
2013-01-11 01:53:00,30.4,17.4,30.44,NE,45,0.7,3.1,58,0.00,,,0.00,WUHU216EASYWX,2013-01-11 06:53:00,
2013-01-11 01:58:00,29.3,17.1,30.44,North,0,3.1,3.8,60,0.00,,,0.00,WUHU216EASYWX,2013-01-11 06:58:00,
2013-01-11 02:03:00,30.0,18.1,30.43,North,0,4.5,6.0,61,0.00,,,0.00,WUHU216EASYWX,2013-01-11 07:03:00,
2013-01-11 02:08:00,30.2,17.6,30.43,NE,45,4.5,6.9,59,0.00,,,0.00,WUHU216EASYWX,2013-01-11 07:08:00,
2013-01-11 02:13:00,30.7,18.1,30.43,NNE,23,3.8,6.9,59,0.00,,,0.00,WUHU216EASYWX,2013-01-11 07:13:00,
2013-01-11 02:18:00,30.6,18.0,30.43,NE,45,3.1,6.0,59,0.00,,,0.00,WUHU216EASYWX,2013-01-11 07:18:00,
2013-01-11 02:23:00,30.4,17.8,30.43,NE,45,3.1,6.0,59,0.00,,,0.00,WUHU216EASYWX,2013-01-11 07:23:00,
2013-01-11 02:24:00,30.2,17.6,30.43,NE,45,3.8,4.5,59,0.00,,,0.00,WUHU216EASYWX,2013-01-11 07:24:00,
2013-01-11 02:28:00,30.2,17.6,30.43,NE,45,3.8,5.4,59,0.00,,,0.00,WUHU216EASYWX,2013-01-11 07:28:00,
2013-01-11 02:33:00,30.2,17.6,30.43,NE,45,3.8,4.5,59,0.00,,,0.00,WUHU216EASYWX,2013-01-11 07:33:00,
2013-01-11 02:38:00,30.2,18.0,30.42,NE,45,4.5,6.0,60,0.00,,,0.00,WUHU216EASYWX,2013-01-11 07:38:00,
2013-01-11 02:43:00,30.2,18.0,30.41,NE,45,5.4,8.3,60,0.00,,,0.00,WUHU216EASYWX,2013-01-11 07:43:00,
2013-01-11 02:48:00,29.7,17.8,30.42,East,90,2.2,8.3,61,0.00,,,0.00,WUHU216EASYWX,2013-01-11 07:48:00,
2013-01-11 02:53:00,29.5,18.1,30.41,NE,45,3.1,6.9,62,0.00,,,0.00,WUHU216EASYWX,2013-01-11 07:53:00,
2013-01-11 02:54:00,29.7,18.3,30.41,NE,45,4.5,6.9,62,0.00,,,0.00,WUHU216EASYWX,2013-01-11 07:54:00,
2013-01-11 02:58:00,29.7,18.3,30.41,NE,45,4.5,6.9,62,0.00,,,0.00,WUHU216EASYWX,2013-01-11 07:58:00,
2013-01-11 03:03:00,29.7,18.3,30.41,NE,45,4.5,6.9,62,0.00,,,0.00,WUHU216EASYWX,2013-01-11 08:03:00,
2013-01-11 12:21:00,35.8,19.4,30.31,SE,135,5.4,6.9,51,0.00,,,0.00,WUHU216EASYWX,2013-01-11 17:21:00,
2013-01-11 12:26:00,35.2,19.8,30.31,SW,225,5.4,8.3,53,0.00,,,0.00,WUHU216EASYWX,2013-01-11 17:26:00,
2013-01-11 12:31:00,34.7,19.8,30.30,SE,135,5.4,8.3,54,0.00,,,0.00,WUHU216EASYWX,2013-01-11 17:31:00,
2013-01-11 12:36:00,34.3,19.9,30.29,SE,135,2.2,6.9,55,0.00,,,0.00,WUHU216EASYWX,2013-01-11 17:36:00,
2013-01-11 12:41:00,34.9,20.3,30.29,East,90,3.1,5.4,55,0.00,,,0.00,WUHU216EASYWX,2013-01-11 17:41:00,
2013-01-11 12:46:00,34.9,19.9,30.28,East,90,3.1,4.5,54,0.00,,,0.00,WUHU216EASYWX,2013-01-11 17:46:00,
2013-01-11 15:02:00,35.4,22.5,30.26,SW,225,2.2,4.5,59,0.00,,,0.00,WUHU216EASYWX,2013-01-11 20:02:00,
2013-01-11 15:07:00,35.1,22.1,30.25,SE,135,1.6,4.5,59,0.00,,,0.00,WUHU216EASYWX,2013-01-11 20:07:00,
2013-01-11 15:12:00,34.5,22.8,30.24,SE,135,2.2,3.8,62,0.00,,,0.00,WUHU216EASYWX,2013-01-11 20:12:00,
2013-01-11 15:17:00,34.2,23.2,30.24,East,90,3.1,4.5,64,0.00,,,0.00,WUHU216EASYWX,2013-01-11 20:17:00,
2013-01-11 15:22:00,33.4,23.7,30.24,East,90,3.1,6.0,67,0.00,,,0.00,WUHU216EASYWX,2013-01-11 20:22:00,
2013-01-11 15:27:00,32.9,23.9,30.23,SE,135,2.2,6.0,69,0.00,,,0.00,WUHU216EASYWX,2013-01-11 20:27:00,
2013-01-11 15:32:00,32.5,24.3,30.24,SE,135,0.7,3.1,71,0.00,,,0.00,WUHU216EASYWX,2013-01-11 20:32:00,
2013-01-11 15:37:00,32.2,24.8,30.23,East,90,3.1,5.4,74,0.00,,,0.00,WUHU216EASYWX,2013-01-11 20:37:00,
2013-01-11 15:42:00,32.0,25.0,30.23,South,180,3.8,6.0,75,0.00,,,0.00,WUHU216EASYWX,2013-01-11 20:42:00,
2013-01-11 15:47:00,32.2,26.1,30.23,South,180,4.5,6.9,78,0.01,,,0.00,WUHU216EASYWX,2013-01-11 20:47:00,
2013-01-11 16:16:00,32.2,27.9,30.22,SE,135,3.1,4.5,84,0.02,,,0.02,WUHU216EASYWX,2013-01-11 21:16:00,
2013-01-11 16:21:00,32.2,27.9,30.22,SE,135,3.1,4.5,84,0.02,,,0.02,WUHU216EASYWX,2013-01-11 21:21:00,
2013-01-11 16:26:00,31.6,27.7,30.20,East,90,3.8,6.0,85,0.02,,,0.03,WUHU216EASYWX,2013-01-11 21:26:00,
2013-01-11 16:32:00,31.6,27.7,30.20,East,90,3.8,6.0,85,0.02,,,0.03,WUHU216EASYWX,2013-01-11 21:32:00,
2013-01-11 16:37:00,31.1,27.1,30.20,East,90,3.1,6.0,85,0.02,,,0.03,WUHU216EASYWX,2013-01-11 21:37:00,
2013-01-11 16:42:00,30.9,27.0,30.21,East,90,2.2,4.5,85,0.02,,,0.03,WUHU216EASYWX,2013-01-11 21:42:00,
2013-01-11 16:47:00,31.1,27.1,30.21,East,90,1.6,3.8,85,0.01,,,0.03,WUHU216EASYWX,2013-01-11 21:47:00,
2013-01-11 16:52:00,31.1,27.1,30.20,SE,135,2.2,4.5,85,0.01,,,0.03,WUHU216EASYWX,2013-01-11 21:52:00,
2013-01-11 16:57:00,31.1,27.1,30.20,SE,135,2.2,4.5,85,0.01,,,0.03,WUHU216EASYWX,2013-01-11 21:57:00,
2013-01-11 17:02:00,31.1,27.1,30.19,East,90,2.2,4.5,85,0.00,,,0.03,WUHU216EASYWX,2013-01-11 22:02:00,
2013-01-11 17:07:00,31.1,27.1,30.19,East,90,2.2,4.5,85,0.00,,,0.03,WUHU216EASYWX,2013-01-11 22:07:00,
2013-01-11 17:12:00,31.1,27.1,30.19,East,90,2.2,3.8,85,0.00,,,0.03,WUHU216EASYWX,2013-01-11 22:12:00,
2013-01-11 17:17:00,30.9,27.0,30.19,East,90,0.7,3.8,85,0.00,,,0.03,WUHU216EASYWX,2013-01-11 22:17:00,
2013-01-11 17:22:00,30.9,27.0,30.19,SE,135,1.6,3.1,85,0.00,,,0.03,WUHU216EASYWX,2013-01-11 22:22:00,
2013-01-11 17:27:00,31.1,27.1,30.19,ESE,113,3.8,6.9,85,0.00,,,0.03,WUHU216EASYWX,2013-01-11 22:27:00,
2013-01-11 17:31:00,31.3,27.3,30.19,ENE,68,4.5,6.0,85,0.00,,,0.03,WUHU216EASYWX,2013-01-11 22:31:00,
2013-01-11 17:32:00,31.3,27.3,30.19,ENE,68,4.5,6.9,85,0.00,,,0.03,WUHU216EASYWX,2013-01-11 22:32:00,
2013-01-11 17:37:00,31.3,27.3,30.19,ENE,68,4.5,6.0,85,0.00,,,0.03,WUHU216EASYWX,2013-01-11 22:37:00,
2013-01-11 17:42:00,31.6,27.9,30.18,East,90,2.2,6.0,86,0.00,,,0.03,WUHU216EASYWX,2013-01-11 22:42:00,
2013-01-11 17:47:00,31.6,27.7,30.17,SE,135,3.8,6.9,85,0.00,,,0.03,WUHU216EASYWX,2013-01-11 22:47:00,
2013-01-11 17:52:00,31.6,27.7,30.18,East,90,3.8,6.9,85,0.00,,,0.03,WUHU216EASYWX,2013-01-11 22:52:00,
2013-01-11 17:57:00,31.8,28.0,30.18,SE,135,2.2,4.5,86,0.00,,,0.03,WUHU216EASYWX,2013-01-11 22:57:00,
2013-01-11 18:02:00,32.0,28.0,30.18,East,90,4.5,6.0,85,0.00,,,0.03,WUHU216EASYWX,2013-01-11 23:02:00,
2013-01-11 18:07:00,32.0,28.0,30.17,SE,135,3.8,6.0,85,0.00,,,0.03,WUHU216EASYWX,2013-01-11 23:07:00,
2013-01-11 18:12:00,32.2,28.2,30.18,SE,135,6.0,7.6,85,0.00,,,0.03,WUHU216EASYWX,2013-01-11 23:12:00,
2013-01-11 18:17:00,32.5,28.6,30.17,SE,135,3.1,7.6,85,0.00,,,0.03,WUHU216EASYWX,2013-01-11 23:17:00,
2013-01-11 18:22:00,32.7,28.9,30.17,SSE,158,6.0,8.3,86,0.01,,,0.03,WUHU216EASYWX,2013-01-11 23:22:00,
2013-01-11 18:27:00,32.7,28.9,30.17,ESE,113,5.4,8.3,86,0.01,,,0.04,WUHU216EASYWX,2013-01-11 23:27:00,
2013-01-11 18:32:00,32.5,28.8,30.16,South,180,5.4,8.3,86,0.01,,,0.04,WUHU216EASYWX,2013-01-11 23:32:00,
2013-01-11 18:37:00,32.4,28.6,30.16,East,90,5.4,8.3,86,0.01,,,0.04,WUHU216EASYWX,2013-01-11 23:37:00,
2013-01-11 18:42:00,32.2,28.4,30.15,SE,135,4.5,8.3,86,0.02,,,0.04,WUHU216EASYWX,2013-01-11 23:42:00,
2013-01-11 18:47:00,32.2,28.4,30.16,East,90,6.0,8.3,86,0.02,,,0.05,WUHU216EASYWX,2013-01-11 23:47:00,
2013-01-11 18:52:00,32.4,28.6,30.15,SE,135,6.0,9.9,86,0.02,,,0.05,WUHU216EASYWX,2013-01-11 23:52:00,
2013-01-11 18:57:00,32.7,29.3,30.15,SSE,158,6.9,12.1,87,0.02,,,0.05,WUHU216EASYWX,2013-01-11 23:57:00,
2013-01-11 19:02:00,32.7,29.3,30.15,SSE,158,6.9,12.1,87,0.02,,,0.05,WUHU216EASYWX,2013-01-12 00:02:00,
2013-01-11 19:07:00,32.9,29.7,30.15,SW,225,6.0,9.2,88,0.04,,,0.05,WUHU216EASYWX,2013-01-12 00:07:00,
2013-01-11 19:12:00,33.1,29.8,30.15,SE,135,8.3,11.4,88,0.04,,,0.06,WUHU216EASYWX,2013-01-12 00:12:00,
2013-01-11 19:17:00,33.4,30.2,30.14,East,90,6.9,11.4,88,0.05,,,0.06,WUHU216EASYWX,2013-01-12 00:17:00,
2013-01-11 19:22:00,33.6,30.7,30.14,SE,135,9.9,14.6,89,0.04,,,0.08,WUHU216EASYWX,2013-01-12 00:22:00,
2013-01-11 19:27:00,33.6,30.7,30.14,South,180,10.8,14.6,89,0.04,,,0.08,WUHU216EASYWX,2013-01-12 00:27:00,
2013-01-11 19:32:00,34.0,31.1,30.13,East,90,9.2,13.7,89,0.04,,,0.08,WUHU216EASYWX,2013-01-12 00:32:00,
2013-01-11 19:37:00,34.2,31.3,30.13,SE,135,10.8,13.7,89,0.04,,,0.08,WUHU216EASYWX,2013-01-12 00:37:00,
2013-01-11 19:42:00,34.3,31.6,30.13,SSE,158,9.2,13.7,90,0.02,,,0.08,WUHU216EASYWX,2013-01-12 00:42:00,
2013-01-11 19:47:00,34.3,31.6,30.13,SSE,158,9.2,13.7,90,0.02,,,0.08,WUHU216EASYWX,2013-01-12 00:47:00,
2013-01-11 19:52:00,34.5,31.8,30.14,SE,135,8.3,14.6,90,0.02,,,0.08,WUHU216EASYWX,2013-01-12 00:52:00,
2013-01-11 19:57:00,34.5,32.2,30.14,SSE,158,10.8,15.2,91,0.04,,,0.08,WUHU216EASYWX,2013-01-12 00:57:00,
2013-01-11 20:02:00,34.7,32.4,30.13,South,180,7.6,15.2,91,0.04,,,0.09,WUHU216EASYWX,2013-01-12 01:02:00,
2013-01-11 20:07:00,34.9,32.5,30.13,SE,135,6.9,9.2,91,0.02,,,0.09,WUHU216EASYWX,2013-01-12 01:07:00,
2013-01-11 20:12:00,34.9,32.5,30.13,SE,135,6.0,10.8,91,0.04,,,0.09,WUHU216EASYWX,2013-01-12 01:12:00,
2013-01-11 20:17:00,34.9,32.7,30.13,SE,135,6.0,10.8,92,0.02,,,0.10,WUHU216EASYWX,2013-01-12 01:17:00,
2013-01-11 20:22:00,35.1,32.9,30.14,SE,135,3.8,7.6,92,0.02,,,0.10,WUHU216EASYWX,2013-01-12 01:22:00,
2013-01-11 20:26:00,35.1,32.9,30.14,SE,135,3.8,5.4,92,0.02,,,0.10,WUHU216EASYWX,2013-01-12 01:26:00,
2013-01-11 20:27:00,35.1,32.9,30.14,SE,135,3.8,5.4,92,0.02,,,0.10,WUHU216EASYWX,2013-01-12 01:27:00,
2013-01-11 20:32:00,35.1,32.9,30.14,SE,135,3.8,5.4,92,0.02,,,0.10,WUHU216EASYWX,2013-01-12 01:32:00,
2013-01-11 20:46:00,35.8,33.4,30.13,SSE,158,8.3,11.4,91,0.04,,,0.10,WUHU216EASYWX,2013-01-12 01:46:00,
2013-01-11 20:51:00,35.8,33.4,30.13,SSE,158,8.3,11.4,91,0.04,,,0.10,WUHU216EASYWX,2013-01-12 01:51:00,
2013-01-11 20:56:00,36.0,33.6,30.12,SE,135,5.4,11.4,91,0.04,,,0.11,WUHU216EASYWX,2013-01-12 01:56:00,
2013-01-11 21:01:00,36.0,33.6,30.12,SE,135,5.4,11.4,91,0.04,,,0.11,WUHU216EASYWX,2013-01-12 02:01:00,
2013-01-11 21:31:00,34.5,32.4,30.11,SE,135,3.8,6.9,92,0.05,,,0.12,WUHU216EASYWX,2013-01-12 02:31:00,
2013-01-11 21:36:00,34.5,32.4,30.11,SE,135,3.8,6.9,92,0.05,,,0.12,WUHU216EASYWX,2013-01-12 02:36:00,
2013-01-11 21:41:00,34.5,32.4,30.11,SE,135,3.8,6.9,92,0.05,,,0.15,WUHU216EASYWX,2013-01-12 02:41:00,
2013-01-11 21:57:00,35.1,33.3,30.10,SE,135,4.5,6.9,93,0.02,,,0.15,WUHU216EASYWX,2013-01-12 02:57:00,
2013-01-11 22:02:00,35.1,33.3,30.10,East,90,6.0,8.3,93,0.02,,,0.15,WUHU216EASYWX,2013-01-12 03:02:00,
2013-01-11 22:06:00,35.1,33.3,30.10,East,90,6.0,8.3,93,0.02,,,0.15,WUHU216EASYWX,2013-01-12 03:06:00,
2013-01-11 22:07:00,35.1,33.3,30.10,East,90,6.0,8.3,93,0.02,,,0.15,WUHU216EASYWX,2013-01-12 03:07:00,
2013-01-11 22:12:00,35.1,33.3,30.10,East,90,6.0,8.3,93,0.02,,,0.15,WUHU216EASYWX,2013-01-12 03:12:00,
2013-01-11 22:32:00,36.5,34.3,30.10,South,180,3.8,6.9,92,0.00,,,0.15,WUHU216EASYWX,2013-01-12 03:32:00,
2013-01-11 22:36:00,36.5,34.3,30.10,South,180,3.8,6.9,92,0.00,,,0.15,WUHU216EASYWX,2013-01-12 03:36:00,
2013-01-11 22:37:00,36.5,34.3,30.10,South,180,3.8,6.9,92,0.00,,,0.15,WUHU216EASYWX,2013-01-12 03:37:00,
2013-01-11 22:42:00,36.5,34.3,30.10,South,180,3.8,6.9,92,0.00,,,0.15,WUHU216EASYWX,2013-01-12 03:42:00,
2013-01-11 22:52:00,36.9,34.7,30.09,SE,135,6.0,8.3,92,0.00,,,0.15,WUHU216EASYWX,2013-01-12 03:52:00,
2013-01-11 22:56:00,36.9,34.7,30.09,SE,135,6.0,8.3,92,0.00,,,0.15,WUHU216EASYWX,2013-01-12 03:56:00,
2013-01-11 22:57:00,36.9,34.7,30.09,SE,135,6.0,8.3,92,0.00,,,0.15,WUHU216EASYWX,2013-01-12 03:57:00,
2013-01-11 23:02:00,36.9,34.7,30.09,SE,135,6.0,8.3,92,0.00,,,0.15,WUHU216EASYWX,2013-01-12 04:02:00,
2013-01-11 23:16:00,37.4,36.7,30.10,West,270,3.1,4.5,97,0.00,,,0.15,WUHU216EASYWX,2013-01-12 04:16:00,
2013-01-11 23:17:00,37.4,36.7,30.10,West,270,3.1,4.5,97,0.00,,,0.15,WUHU216EASYWX,2013-01-12 04:17:00,
2013-01-11 23:22:00,37.4,36.7,30.10,West,270,3.1,4.5,97,0.00,,,0.15,WUHU216EASYWX,2013-01-12 04:22:00,
2013-01-11 23:27:00,37.4,36.7,30.09,SE,135,3.8,6.0,97,0.00,,,0.15,WUHU216EASYWX,2013-01-12 04:27:00,
2013-01-11 23:32:00,37.6,36.9,30.09,SE,135,2.2,6.0,97,0.00,,,0.15,WUHU216EASYWX,2013-01-12 04:32:00,
2013-01-11 23:37:00,37.6,36.9,30.09,SE,135,2.2,4.5,97,0.00,,,0.15,WUHU216EASYWX,2013-01-12 04:37:00,
2013-01-11 23:42:00,37.6,36.9,30.09,SE,135,2.2,3.8,97,0.00,,,0.15,WUHU216EASYWX,2013-01-12 04:42:00,
2013-01-11 23:47:00,36.5,34.7,30.09,East,90,3.1,4.5,93,0.00,,,0.15,WUHU216EASYWX,2013-01-12 04:47:00,
2013-01-11 23:51:00,36.5,34.7,30.09,East,90,3.1,4.5,93,0.00,,,0.15,WUHU216EASYWX,2013-01-12 04:51:00,
2013-01-11 23:52:00,36.5,34.7,30.09,East,90,3.1,4.5,93,0.00,,,0.15,WUHU216EASYWX,2013-01-12 04:52:00,
2013-01-11 23:57:00,36.5,34.7,30.09,East,90,3.1,4.5,93,0.00,,,0.15,WUHU216EASYWX,2013-01-12 04:57:00,